TimeEST,TemperatureF,Dew PointF,Humidity,Sea Level PressureIn,VisibilityMPH,Wind Direction,Wind SpeedMPH,Gust SpeedMPH,PrecipitationIn,Events,Conditions,WindDirDegrees,DateUTC
12:15 AM,37.6,37.6,100,30.07,1.8,Calm,Calm,-,N/A,,Mist,0,2012-12-08 05:15:00
12:35 AM,37.0,37.0,100,30.07,3.0,Calm,Calm,-,N/A,,Clear,0,2012-12-08 05:35:00
12:55 AM,36.0,36.0,100,30.07,0.2,Calm,Calm,-,N/A,Fog,Fog,0,2012-12-08 05:55:00
1:15 AM,36.1,36.1,100,30.06,0.2,Calm,Calm,-,N/A,Fog,Fog,0,2012-12-08 06:15:00
1:35 AM,36.1,36.1,100,30.05,0.5,Calm,Calm,-,N/A,Fog,Fog,0,2012-12-08 06:35:00
1:55 AM,35.6,35.6,100,30.05,0.2,Calm,Calm,-,N/A,Fog,Fog,0,2012-12-08 06:55:00
2:15 AM,36.5,36.5,100,30.05,0.5,Calm,Calm,-,N/A,Fog,Fog,0,2012-12-08 07:15:00
2:35 AM,36.5,36.5,100,30.05,1.2,Calm,Calm,-,N/A,,Mostly Cloudy,0,2012-12-08 07:35:00
2:55 AM,35.2,35.2,100,30.04,0.2,Calm,Calm,-,N/A,Fog,Fog,0,2012-12-08 07:55:00
3:15 AM,35.1,35.1,100,30.03,0.2,Calm,Calm,-,N/A,Fog,Fog,0,2012-12-08 08:15:00
3:35 AM,35.8,35.8,100,30.03,0.2,Calm,Calm,-,N/A,Fog,Fog,0,2012-12-08 08:35:00
3:55 AM,37.2,37.2,100,30.03,0.2,Calm,Calm,-,N/A,Fog,Fog,0,2012-12-08 08:55:00
4:15 AM,37.9,37.9,100,30.03,0.2,Calm,Calm,-,N/A,Fog,Fog,0,2012-12-08 09:15:00
4:35 AM,39.0,39.0,100,30.04,0.2,Calm,Calm,-,N/A,Fog,Fog,0,2012-12-08 09:35:00
4:55 AM,40.1,40.1,100,30.04,0.2,Calm,Calm,-,N/A,Fog,Fog,0,2012-12-08 09:55:00
5:15 AM,41.0,41.0,100,30.04,0.2,Calm,Calm,-,N/A,Fog,Fog,0,2012-12-08 10:15:00
5:35 AM,40.3,40.3,100,30.04,0.2,Calm,Calm,-,N/A,Fog,Fog,0,2012-12-08 10:35:00
5:55 AM,41.0,41.0,100,30.04,0.2,Calm,Calm,-,N/A,Fog,Fog,0,2012-12-08 10:55:00
6:15 AM,41.0,41.0,100,30.04,0.2,Calm,Calm,-,N/A,Fog,Fog,0,2012-12-08 11:15:00
6:35 AM,41.0,41.0,100,30.05,0.2,Calm,Calm,-,N/A,Fog,Fog,0,2012-12-08 11:35:00
6:55 AM,41.2,41.2,100,30.06,0.2,Calm,Calm,-,N/A,Fog,Fog,0,2012-12-08 11:55:00
7:15 AM,41.7,41.7,100,30.06,0.2,Calm,Calm,-,N/A,Fog,Fog,0,2012-12-08 12:15:00
7:35 AM,41.7,41.7,100,30.06,0.2,Calm,Calm,-,N/A,Fog,Fog,0,2012-12-08 12:35:00
7:55 AM,42.1,42.1,100,30.06,0.2,Calm,Calm,-,N/A,Fog,Fog,0,2012-12-08 12:55:00
8:15 AM,42.8,42.8,100,30.06,0.2,Calm,Calm,-,N/A,Fog,Fog,0,2012-12-08 13:15:00
8:35 AM,43.2,43.2,100,30.07,0.2,Calm,Calm,-,N/A,Fog,Fog,0,2012-12-08 13:35:00
8:55 AM,43.7,43.7,100,30.07,0.2,Calm,Calm,-,N/A,Fog,Fog,0,2012-12-08 13:55:00
9:15 AM,44.4,44.4,100,30.08,0.2,Calm,Calm,-,N/A,Fog,Fog,0,2012-12-08 14:15:00
9:35 AM,44.6,44.6,100,30.07,0.2,Calm,Calm,-,N/A,Fog,Fog,0,2012-12-08 14:35:00
9:55 AM,45.5,45.5,100,30.08,2.0,Calm,Calm,-,N/A,,Overcast,0,2012-12-08 14:55:00
10:15 AM,46.8,46.8,100,30.08,3.0,Calm,Calm,-,N/A,,Overcast,0,2012-12-08 15:15:00
10:35 AM,46.9,46.9,100,30.08,5.0,Calm,Calm,-,N/A,,Mostly Cloudy,0,2012-12-08 15:35:00
10:55 AM,47.7,47.7,100,30.08,5.0,Calm,Calm,-,N/A,,Mostly Cloudy,0,2012-12-08 15:55:00
11:15 AM,49.1,49.1,100,30.07,10.0,Calm,Calm,-,N/A,,Scattered Clouds,0,2012-12-08 16:15:00
11:35 AM,50.0,50.0,100,30.06,10.0,Calm,Calm,-,N/A,,Clear,0,2012-12-08 16:35:00
11:55 AM,52.9,52.7,99,30.05,10.0,Calm,Calm,-,N/A,,Clear,0,2012-12-08 16:55:00
12:15 PM,56.5,49.6,78,30.05,10.0,Calm,Calm,-,N/A,,Clear,0,2012-12-08 17:15:00
12:35 PM,58.1,49.6,73,30.04,10.0,Calm,Calm,-,N/A,,Clear,0,2012-12-08 17:35:00
12:55 PM,60.1,49.8,69,30.03,10.0,Calm,Calm,-,N/A,,Clear,0,2012-12-08 17:55:00
1:15 PM,62.2,49.8,64,30.02,10.0,South,5.8,-,N/A,,Clear,190,2012-12-08 18:15:00
1:35 PM,63.3,50.0,62,30.02,10.0,SSE,6.9,-,N/A,,Clear,150,2012-12-08 18:35:00
1:55 PM,64.2,50.2,60,30.01,10.0,South,4.6,-,N/A,,Clear,190,2012-12-08 18:55:00
2:15 PM,64.8,49.8,58,30.01,10.0,SSE,4.6,-,N/A,,Clear,160,2012-12-08 19:15:00
2:35 PM,65.7,49.8,57,30.01,10.0,SSE,3.5,-,N/A,,Clear,160,2012-12-08 19:35:00
2:55 PM,66.2,50.0,56,30.01,10.0,SSE,4.6,-,N/A,,Clear,160,2012-12-08 19:55:00
3:15 PM,66.7,50.0,55,30.01,10.0,Calm,Calm,-,N/A,,Clear,0,2012-12-08 20:15:00
3:35 PM,66.7,50.2,55,30.01,10.0,South,3.5,-,N/A,,Clear,170,2012-12-08 20:35:00
3:55 PM,65.5,51.1,60,30.01,10.0,Calm,Calm,-,N/A,,Clear,0,2012-12-08 20:55:00
4:15 PM,65.3,52.2,62,30.01,10.0,Calm,Calm,-,N/A,,Clear,0,2012-12-08 21:15:00
4:35 PM,64.2,51.8,64,30.02,10.0,Calm,Calm,-,N/A,,Clear,0,2012-12-08 21:35:00
4:55 PM,60.8,51.4,71,30.02,10.0,Calm,Calm,-,N/A,,Clear,0,2012-12-08 21:55:00
5:15 PM,57.6,53.2,85,30.03,10.0,Calm,Calm,-,N/A,,Clear,0,2012-12-08 22:15:00
5:35 PM,54.9,51.6,89,30.03,10.0,Calm,Calm,-,N/A,,Clear,0,2012-12-08 22:35:00
5:55 PM,53.4,50.5,90,30.04,10.0,Calm,Calm,-,N/A,,Clear,0,2012-12-08 22:55:00
6:15 PM,53.1,50.7,92,30.04,10.0,Calm,Calm,-,N/A,,Scattered Clouds,0,2012-12-08 23:15:00
6:35 PM,53.1,50.2,90,30.04,10.0,Calm,Calm,-,N/A,,Scattered Clouds,0,2012-12-08 23:35:00
6:55 PM,54.1,50.2,86,30.04,10.0,Calm,Calm,-,N/A,,Scattered Clouds,0,2012-12-08 23:55:00
7:15 PM,54.9,51.6,89,30.05,10.0,Calm,Calm,-,N/A,,Mostly Cloudy,0,2012-12-09 00:15:00
7:35 PM,50.9,49.1,94,30.05,10.0,Calm,Calm,-,N/A,,Mostly Cloudy,0,2012-12-09 00:35:00
7:55 PM,51.3,50.0,95,30.06,10.0,Calm,Calm,-,N/A,,Scattered Clouds,0,2012-12-09 00:55:00
8:15 PM,49.3,48.2,96,30.07,10.0,Calm,Calm,-,N/A,,Clear,0,2012-12-09 01:15:00
8:35 PM,48.6,47.8,97,30.07,7.0,Calm,Calm,-,N/A,,Clear,0,2012-12-09 01:35:00
9:15 PM,47.5,47.1,99,30.07,5.0,Calm,Calm,-,N/A,,Clear,0,2012-12-09 02:15:00
9:35 PM,47.3,47.3,100,30.07,4.0,Calm,Calm,-,N/A,,Clear,0,2012-12-09 02:35:00
9:55 PM,48.4,48.4,100,30.08,3.0,Calm,Calm,-,N/A,,Clear,0,2012-12-09 02:55:00
10:15 PM,46.8,46.8,100,30.08,1.5,Calm,Calm,-,N/A,,Mist,0,2012-12-09 03:15:00
10:35 PM,45.5,45.5,100,30.09,1.8,Calm,Calm,-,N/A,,Mist,0,2012-12-09 03:35:00
10:55 PM,45.0,45.0,100,30.09,1.2,Calm,Calm,-,N/A,,Mist,0,2012-12-09 03:55:00
11:35 PM,47.8,47.8,100,30.09,0.5,Calm,Calm,-,N/A,Fog,Fog,0,2012-12-09 04:35:00
11:55 PM,46.0,46.0,100,30.10,1.0,Calm,Calm,-,N/A,,Overcast,0,2012-12-09 04:55:00